Location: Burbank
(38.7788°N, 114.0429°W)
Time: 01:40:51
(UTC+00:00)

Tiros 1 despin weight - Pass Details

Date: 13 May 2026
Orbit: 554 x 591 km, 48.2° (Epoch: 6 June)

Event Time Altitude Azimuth Distance (km) Brightness Sun altitude
Rises 16:57:19 0° 300° (WNW) 2,734 ? 50.8°
Reaches altitude 10° 16:59:53 10° 314° (NW) 1,836 ? 51.3°
Maximum altitude 17:03:22 25° 10° (N) 1,153 ? 51.9°
Drops below altitude 10° 17:06:50 10° 66° (ENE) 1,832 ? 52.5°
Sets 17:09:24 0° 80° (E) 2,728 ? 53.0°
